Home   Weather   Durrës   Past weeks

Flag for Albania Past Weather in Durrës, Albania — Yesterday and Last 2 Weeks

61 °F

Partly sunny.

Feels Like: 61 °F
Forecast: 66 / 73 °F
Wind: 2 mph from Southeast

Location: Tirana Airport

Current Time: Oct 23, 2016 at 8:21:21 AM

Latest Report: Oct 23, 2016 at 7:50 AM

Visibility: N/A

Pressure: 30.07 "Hg

Humidity: 88%

Dew Point: 57 °F

Location of DurrësLocation

Past Weather in Durrës — Graph


Durrës Temperature Yesterday

Maximum temperature yesterday: 72 °F (at 1:50 PM)
Minimum temperature yesterday: 59 °F (at 6:20 AM)
Average temperature yesterday: 64 °F

High & Low Weather Summary for the Past Weeks

High82 °F (Oct 17, 2:50 PM)100% (Oct 8, 7:20 AM)30.21 "Hg (Oct 8, 7:20 AM)
Low46 °F (Oct 13, 4:20 AM)30% (Oct 13, 4:20 PM)29.68 "Hg (Oct 12, 3:20 AM)
Average62 °F78%30.02 "Hg
* Reported Oct 8 7:20 AM — Oct 23 7:20 AM, Durrës, Weather by CustomWeather, © 2016

Note: Actual official high and low records may vary slightly from our data, if they occured in-between our weather recording intervals... More about our weather records


Durrës Weather History for the Previous 24 Hours

Scroll right to see more
Time TempWeatherWind HumidityBarometerVisibility
7:20 AM
Sun, Oct 23
59 °FBroken clouds.5 mph94%30.07 "HgN/A
6:50 AM59 °FPartly cloudy.2 mph94%30.07 "HgN/A
6:20 AM59 °FPartly cloudy.3 mph94%30.07 "Hg4 mi
5:50 AM59 °FPartly cloudy.3 mph94%30.07 "HgN/A
5:20 AM59 °FPartly cloudy.3 mph94%30.07 "HgN/A
4:50 AM61 °FPartly cloudy.3 mph94%30.07 "HgN/A
4:20 AM61 °FLight rain. Partly cloudy.2 mph94%30.07 "HgN/A
3:50 AM61 °FFog.2 mph94%30.07 "HgN/A
3:20 AM59 °FPassing clouds.2 mph100%30.07 "HgN/A
2:50 AM61 °FPartly cloudy.3 mph94%30.07 "Hg5 mi
2:20 AM61 °FPassing clouds.3 mph94%30.07 "HgN/A
1:50 AM59 °FPassing clouds.2 mph94%30.07 "HgN/A
1:20 AM61 °FPassing clouds.2 mph94%30.07 "HgN/A
12:50 AM59 °FPassing clouds.3 mph94%30.07 "HgN/A
12:20 AM61 °FPassing clouds.3 mph94%30.07 "HgN/A
11:50 PM
Sat, Oct 22
59 °FPassing clouds.2 mph94%30.07 "HgN/A
11:20 PM59 °FPassing clouds.2 mph94%30.07 "HgN/A
10:50 PM61 °FPassing clouds.2 mph94%30.07 "HgN/A
10:20 PM61 °FPassing clouds.No wind94%30.07 "HgN/A
9:50 PM63 °FPassing clouds.2 mph88%30.04 "HgN/A
9:20 PM63 °FPassing clouds.3 mph88%30.04 "HgN/A
8:50 PM61 °FPassing clouds.3 mph94%30.04 "HgN/A
8:20 PM63 °FPassing clouds.3 mph94%30.04 "HgN/A
7:50 PM63 °FPassing clouds.2 mph88%30.01 "HgN/A
7:20 PM63 °FPassing clouds.2 mph88%30.01 "HgN/A
6:50 PM64 °FPassing clouds.2 mph83%30.01 "HgN/A
6:20 PM64 °FPassing clouds.5 mph83%30.01 "HgN/A
5:50 PM64 °FPassing clouds.5 mph83%30.01 "HgN/A
5:20 PM66 °FScattered clouds.6 mph73%29.98 "HgN/A
4:50 PM68 °FPassing clouds.6 mph69%29.98 "HgN/A
4:20 PM68 °FPassing clouds.5 mph69%29.98 "HgN/A
3:50 PM70 °FScattered clouds.5 mph60%29.98 "HgN/A
3:20 PM68 °FScattered clouds.6 mph60%29.98 "HgN/A
2:50 PM72 °FScattered clouds.6 mph57%29.98 "HgN/A
2:20 PM72 °FScattered clouds.3 mph50%29.98 "HgN/A
1:50 PM72 °FScattered clouds.5 mph61%29.98 "HgN/A
1:20 PM70 °FBroken clouds.6 mph60%29.98 "HgN/A
12:50 PM70 °FBroken clouds.2 mph64%29.98 "HgN/A
12:20 PM68 °FBroken clouds.3 mph69%29.98 "HgN/A
11:50 AM70 °FBroken clouds.2 mph64%29.98 "HgN/A
11:20 AM68 °FBroken clouds.No wind69%29.98 "HgN/A
10:50 AM68 °FBroken clouds.No wind69%29.98 "HgN/A
10:20 AM68 °FBroken clouds.No wind78%29.98 "HgN/A
9:50 AM70 °FBroken clouds.No wind73%29.95 "HgN/A
9:20 AM66 °FBroken clouds.No wind88%29.95 "HgN/A
8:50 AM63 °FScattered clouds.2 mph100%29.95 "Hg4 mi
8:20 AM61 °FFog.No wind100%29.95 "Hg2 mi
Weather by CustomWeather, © 2016

See weather overviewHow to use our weather pages